Time,TemperatureF,DewpointF,PressureIn,WindDirection,WindDirectionDegrees,WindSpeedMPH,WindSpeedGustMPH,Humidity,HourlyPrecipIn,Conditions,Clouds,dailyrainin,SoftwareType,DateUTC
2013-08-10 00:00:00,64.2,40.6,29.99,NW,313,0.0,0.0,42,0.00,,,-99.99,Weather View 32 v60,2013-08-10 04:00:00,
2013-08-10 00:05:00,64.2,40.6,30.02,NW,313,0.0,0.0,42,0.00,,,-99.99,Weather View 32 v60,2013-08-10 04:05:00,
2013-08-10 00:10:00,63.9,40.3,30.02,NW,313,0.0,0.0,42,0.00,,,-99.99,Weather View 32 v60,2013-08-10 04:10:00,
2013-08-10 00:15:00,63.7,40.1,30.02,NW,313,0.0,0.0,42,0.00,,,-99.99,Weather View 32 v60,2013-08-10 04:15:00,
2013-08-10 00:20:00,63.5,39.9,30.02,NW,313,0.0,0.0,42,0.00,,,-99.99,Weather View 32 v60,2013-08-10 04:20:00,
2013-08-10 00:25:00,63.3,40.4,30.02,NW,313,0.0,0.0,43,0.00,,,-99.99,Weather View 32 v60,2013-08-10 04:25:00,
2013-08-10 00:34:00,63.1,40.2,30.02,NW,313,0.0,0.0,43,0.00,,,-99.99,Weather View 32 v60,2013-08-10 04:34:00,
2013-08-10 00:40:00,62.8,40.5,30.02,NW,313,0.0,0.0,44,0.00,,,-99.99,Weather View 32 v60,2013-08-10 04:40:00,
2013-08-10 00:45:00,62.6,40.3,30.02,NW,313,0.0,0.0,44,0.00,,,-99.99,Weather View 32 v60,2013-08-10 04:45:00,
2013-08-10 00:50:00,62.4,40.2,30.02,NW,313,0.0,0.0,44,0.00,,,-99.99,Weather View 32 v60,2013-08-10 04:50:00,
2013-08-10 00:55:00,62.2,40.0,30.02,NW,313,0.0,0.0,44,0.00,,,-99.99,Weather View 32 v60,2013-08-10 04:55:00,
2013-08-10 01:00:00,62.1,40.4,30.02,NW,313,0.0,0.0,45,0.00,,,-99.99,Weather View 32 v60,2013-08-10 05:00:00,
2013-08-10 01:05:00,61.9,40.3,30.02,NW,313,0.0,0.0,45,0.00,,,-99.99,Weather View 32 v60,2013-08-10 05:05:00,
2013-08-10 01:10:00,61.7,39.5,30.02,NW,313,0.0,0.0,44,0.00,,,-99.99,Weather View 32 v60,2013-08-10 05:10:00,
2013-08-10 01:15:00,61.5,39.4,30.02,NW,313,0.0,0.0,44,0.00,,,-99.99,Weather View 32 v60,2013-08-10 05:15:00,
2013-08-10 01:20:00,61.3,39.8,30.02,NW,313,0.0,0.0,45,0.00,,,-99.99,Weather View 32 v60,2013-08-10 05:20:00,
2013-08-10 01:25:00,61.2,39.6,30.02,NW,313,0.0,0.0,45,0.00,,,-99.99,Weather View 32 v60,2013-08-10 05:25:00,
2013-08-10 01:30:00,61.0,39.4,30.02,NW,313,0.0,0.0,45,0.00,,,-99.99,Weather View 32 v60,2013-08-10 05:30:00,
2013-08-10 01:35:00,60.8,39.3,30.02,NW,313,0.0,0.0,45,0.00,,,-99.99,Weather View 32 v60,2013-08-10 05:35:00,
2013-08-10 01:45:00,60.6,39.7,30.02,NW,313,0.0,0.0,46,0.00,,,-99.99,Weather View 32 v60,2013-08-10 05:45:00,
2013-08-10 01:50:00,60.4,39.5,30.02,NW,313,0.0,0.0,46,0.00,,,-99.99,Weather View 32 v60,2013-08-10 05:50:00,
2013-08-10 01:55:00,60.4,39.5,30.02,NW,313,0.0,0.0,46,0.00,,,-99.99,Weather View 32 v60,2013-08-10 05:55:00,
2013-08-10 02:00:00,60.3,39.3,30.02,NW,313,0.0,0.0,46,0.00,,,-99.99,Weather View 32 v60,2013-08-10 06:00:00,
2013-08-10 02:05:00,60.1,39.2,30.05,NW,313,0.0,0.0,46,0.00,,,-99.99,Weather View 32 v60,2013-08-10 06:05:00,
2013-08-10 02:10:00,59.9,39.0,30.05,NW,313,0.0,0.0,46,0.00,,,-99.99,Weather View 32 v60,2013-08-10 06:10:00,
2013-08-10 02:15:00,59.7,38.9,30.05,NW,313,0.0,0.0,46,0.00,,,-99.99,Weather View 32 v60,2013-08-10 06:15:00,
2013-08-10 02:20:00,59.5,38.7,30.05,NW,313,0.0,0.0,46,0.00,,,-99.99,Weather View 32 v60,2013-08-10 06:20:00,
2013-08-10 02:25:00,59.4,38.5,30.05,NW,313,0.0,0.0,46,0.00,,,-99.99,Weather View 32 v60,2013-08-10 06:25:00,
2013-08-10 02:30:00,59.2,38.4,30.05,NW,313,0.0,0.0,46,0.00,,,-99.99,Weather View 32 v60,2013-08-10 06:30:00,
2013-08-10 02:35:00,59.2,38.4,30.05,NW,313,0.0,0.0,46,0.00,,,-99.99,Weather View 32 v60,2013-08-10 06:35:00,
2013-08-10 02:40:00,59.0,38.2,30.05,NW,313,0.0,0.0,46,0.00,,,-99.99,Weather View 32 v60,2013-08-10 06:40:00,
2013-08-10 02:45:00,58.8,38.0,30.05,NW,313,0.0,0.0,46,0.00,,,-99.99,Weather View 32 v60,2013-08-10 06:45:00,
2013-08-10 02:50:00,58.6,37.9,30.05,NW,313,0.0,0.0,46,0.00,,,-99.99,Weather View 32 v60,2013-08-10 06:50:00,
2013-08-10 02:55:00,58.5,37.7,30.05,NW,313,0.0,0.0,46,0.00,,,-99.99,Weather View 32 v60,2013-08-10 06:55:00,
2013-08-10 03:00:00,58.3,37.5,30.05,NW,313,0.0,0.0,46,0.00,,,-99.99,Weather View 32 v60,2013-08-10 07:00:00,
2013-08-10 03:05:00,58.1,37.4,30.05,NW,313,0.0,0.0,46,0.00,,,-99.99,Weather View 32 v60,2013-08-10 07:05:00,
2013-08-10 03:10:00,57.9,37.2,30.05,NW,313,0.0,0.0,46,0.00,,,-99.99,Weather View 32 v60,2013-08-10 07:10:00,
2013-08-10 03:15:00,57.9,37.2,30.05,NW,313,0.0,0.0,46,0.00,,,-99.99,Weather View 32 v60,2013-08-10 07:15:00,
2013-08-10 03:20:00,57.7,37.1,30.05,NW,313,0.0,0.0,46,0.00,,,-99.99,Weather View 32 v60,2013-08-10 07:20:00,
2013-08-10 03:25:00,57.6,36.9,30.05,NW,313,0.0,0.0,46,0.00,,,-99.99,Weather View 32 v60,2013-08-10 07:25:00,
2013-08-10 03:30:00,57.4,36.7,30.05,NW,313,0.0,0.0,46,0.00,,,-99.99,Weather View 32 v60,2013-08-10 07:30:00,
2013-08-10 03:35:00,57.2,36.6,30.05,NW,313,0.0,0.0,46,0.00,,,-99.99,Weather View 32 v60,2013-08-10 07:35:00,
2013-08-10 03:40:00,57.2,36.6,30.05,NW,313,0.0,0.0,46,0.00,,,-99.99,Weather View 32 v60,2013-08-10 07:40:00,
2013-08-10 03:45:00,57.0,36.9,30.05,NW,313,0.0,0.0,47,0.00,,,-99.99,Weather View 32 v60,2013-08-10 07:45:00,
2013-08-10 03:50:00,56.8,36.8,30.08,NW,313,0.0,0.0,47,0.00,,,-99.99,Weather View 32 v60,2013-08-10 07:50:00,
2013-08-10 03:55:00,56.7,36.6,30.08,NW,313,0.0,0.0,47,0.00,,,-99.99,Weather View 32 v60,2013-08-10 07:55:00,
2013-08-10 04:00:00,56.5,36.5,30.08,NW,313,0.0,0.0,47,0.00,,,-99.99,Weather View 32 v60,2013-08-10 08:00:00,
2013-08-10 04:05:00,56.3,36.3,30.08,NW,313,0.0,0.0,47,0.00,,,-99.99,Weather View 32 v60,2013-08-10 08:05:00,
2013-08-10 04:10:00,56.3,36.3,30.08,NW,313,0.0,0.0,47,0.00,,,-99.99,Weather View 32 v60,2013-08-10 08:10:00,
2013-08-10 04:15:00,56.1,36.1,30.08,NW,313,0.0,0.0,47,0.00,,,-99.99,Weather View 32 v60,2013-08-10 08:15:00,
2013-08-10 04:20:00,55.9,36.0,30.08,NW,313,0.0,0.0,47,0.00,,,-99.99,Weather View 32 v60,2013-08-10 08:20:00,
2013-08-10 04:30:00,55.4,36.0,30.08,NW,313,0.0,0.0,48,0.00,,,-99.99,Weather View 32 v60,2013-08-10 08:30:00,
2013-08-10 04:35:00,55.2,35.8,30.08,NW,313,0.0,0.0,48,0.00,,,-99.99,Weather View 32 v60,2013-08-10 08:35:00,
2013-08-10 04:40:00,55.2,35.8,30.08,NW,313,0.0,0.0,48,0.00,,,-99.99,Weather View 32 v60,2013-08-10 08:40:00,
2013-08-10 04:45:00,55.0,35.7,30.08,NW,313,0.0,0.0,48,0.00,,,-99.99,Weather View 32 v60,2013-08-10 08:45:00,
2013-08-10 04:50:00,54.9,35.5,30.08,NW,313,0.0,0.0,48,0.00,,,-99.99,Weather View 32 v60,2013-08-10 08:50:00,
2013-08-10 04:55:00,54.7,35.3,30.08,NW,313,0.0,0.0,48,0.00,,,-99.99,Weather View 32 v60,2013-08-10 08:55:00,
2013-08-10 05:00:00,54.5,35.2,30.08,NW,313,0.0,0.0,48,0.00,,,-99.99,Weather View 32 v60,2013-08-10 09:00:00,
2013-08-10 05:05:00,54.5,35.2,30.08,NW,313,0.0,0.0,48,0.00,,,-99.99,Weather View 32 v60,2013-08-10 09:05:00,
2013-08-10 05:10:00,54.3,35.0,30.08,NW,313,0.0,0.0,48,0.00,,,-99.99,Weather View 32 v60,2013-08-10 09:10:00,
2013-08-10 05:20:00,54.1,34.8,30.08,NW,313,0.0,0.0,48,0.00,,,-99.99,Weather View 32 v60,2013-08-10 09:20:00,
2013-08-10 05:25:00,54.0,35.2,30.08,NW,313,0.0,0.0,49,0.00,,,-99.99,Weather View 32 v60,2013-08-10 09:25:00,
2013-08-10 05:30:00,54.0,34.7,30.08,NW,313,0.0,0.0,48,0.00,,,-99.99,Weather View 32 v60,2013-08-10 09:30:00,
2013-08-10 05:35:00,53.8,34.5,30.08,NW,313,0.0,0.0,48,0.00,,,-99.99,Weather View 32 v60,2013-08-10 09:35:00,
2013-08-10 05:40:00,53.6,34.3,30.08,NW,313,0.0,0.0,48,0.00,,,-99.99,Weather View 32 v60,2013-08-10 09:40:00,
2013-08-10 05:45:00,53.6,34.3,30.08,NW,313,0.0,0.0,48,0.00,,,-99.99,Weather View 32 v60,2013-08-10 09:45:00,
2013-08-10 05:50:00,53.4,34.7,30.08,NW,313,0.0,0.0,49,0.00,,,-99.99,Weather View 32 v60,2013-08-10 09:50:00,
2013-08-10 06:00:00,53.1,34.4,30.08,NW,313,0.0,0.0,49,0.00,,,-99.99,Weather View 32 v60,2013-08-10 10:00:00,
2013-08-10 06:10:00,52.9,34.2,30.08,NW,313,0.0,0.0,49,0.00,,,-99.99,Weather View 32 v60,2013-08-10 10:10:00,
2013-08-10 06:15:00,52.7,34.0,30.08,NW,313,0.0,0.0,49,0.00,,,-99.99,Weather View 32 v60,2013-08-10 10:15:00,
2013-08-10 06:20:00,52.5,33.9,30.08,NW,313,0.0,0.0,49,0.00,,,-99.99,Weather View 32 v60,2013-08-10 10:20:00,
2013-08-10 06:25:00,52.3,33.7,30.08,NW,313,0.0,0.0,49,0.00,,,-99.99,Weather View 32 v60,2013-08-10 10:25:00,
2013-08-10 06:30:00,52.3,33.7,30.08,NW,313,0.0,0.0,49,0.00,,,-99.99,Weather View 32 v60,2013-08-10 10:30:00,
2013-08-10 06:38:00,52.2,33.5,30.08,NW,313,0.0,0.0,49,0.00,,,-99.99,Weather View 32 v60,2013-08-10 10:38:00,
2013-08-10 06:45:00,51.8,33.7,30.08,NW,313,0.0,0.0,50,0.00,,,-99.99,Weather View 32 v60,2013-08-10 10:45:00,
2013-08-10 06:50:00,51.6,33.6,30.08,NW,313,0.0,0.0,50,0.00,,,-99.99,Weather View 32 v60,2013-08-10 10:50:00,
2013-08-10 06:55:00,51.4,33.4,30.08,NW,313,0.0,0.0,50,0.00,,,-99.99,Weather View 32 v60,2013-08-10 10:55:00,
2013-08-10 07:00:00,51.4,33.4,30.08,NW,313,0.0,0.0,50,0.00,,,-99.99,Weather View 32 v60,2013-08-10 11:00:00,
2013-08-10 07:05:00,51.4,33.4,30.11,NW,313,0.0,0.0,50,0.00,,,-99.99,Weather View 32 v60,2013-08-10 11:05:00,
2013-08-10 07:10:00,51.3,33.7,30.11,NW,313,0.0,0.0,51,0.00,,,-99.99,Weather View 32 v60,2013-08-10 11:10:00,
2013-08-10 07:15:00,51.3,33.7,30.11,NW,313,0.0,0.0,51,0.00,,,-99.99,Weather View 32 v60,2013-08-10 11:15:00,
2013-08-10 07:25:00,51.1,34.0,30.11,NW,313,0.0,0.0,52,0.00,,,-99.99,Weather View 32 v60,2013-08-10 11:25:00,
2013-08-10 07:30:00,51.1,34.5,30.11,NW,313,0.0,0.0,53,0.00,,,-99.99,Weather View 32 v60,2013-08-10 11:30:00,
2013-08-10 07:35:00,51.3,35.2,30.11,NW,313,0.0,0.0,54,0.00,,,-99.99,Weather View 32 v60,2013-08-10 11:35:00,
2013-08-10 07:40:00,51.3,35.2,30.11,NW,313,0.0,0.0,54,0.00,,,-99.99,Weather View 32 v60,2013-08-10 11:40:00,
2013-08-10 07:45:00,51.4,35.3,30.11,NW,313,0.0,0.0,54,0.00,,,-99.99,Weather View 32 v60,2013-08-10 11:45:00,
2013-08-10 07:50:00,51.6,35.9,30.11,NW,313,0.0,0.0,55,0.00,,,-99.99,Weather View 32 v60,2013-08-10 11:50:00,
2013-08-10 08:00:00,52.0,36.7,30.11,NW,313,0.0,0.0,56,0.00,,,-99.99,Weather View 32 v60,2013-08-10 12:00:00,
2013-08-10 08:10:00,52.7,37.9,30.11,NW,313,0.0,0.0,57,0.00,,,-99.99,Weather View 32 v60,2013-08-10 12:10:00,
2013-08-10 08:15:00,53.1,38.6,30.11,NW,313,0.0,0.0,58,0.00,,,-99.99,Weather View 32 v60,2013-08-10 12:15:00,
2013-08-10 08:20:00,53.6,39.2,30.11,NW,313,0.0,0.0,58,0.00,,,-99.99,Weather View 32 v60,2013-08-10 12:20:00,
2013-08-10 08:25:00,54.0,39.9,30.11,NW,313,0.0,0.0,59,0.00,,,-99.99,Weather View 32 v60,2013-08-10 12:25:00,
2013-08-10 08:30:00,54.5,40.9,30.11,North,0,0.0,0.0,60,0.00,,,-99.99,Weather View 32 v60,2013-08-10 12:30:00,
2013-08-10 08:35:00,55.0,41.4,30.11,ENE,72,0.0,0.0,60,0.00,,,-99.99,Weather View 32 v60,2013-08-10 12:35:00,
2013-08-10 08:40:00,55.4,41.3,30.11,ENE,72,0.0,0.0,59,0.00,,,-99.99,Weather View 32 v60,2013-08-10 12:40:00,
2013-08-10 08:50:00,56.3,41.2,30.11,ESE,119,2.0,4.0,57,0.00,,,-99.99,Weather View 32 v60,2013-08-10 12:50:00,
2013-08-10 08:55:00,56.7,40.6,30.11,East,88,2.0,4.0,55,0.00,,,-99.99,Weather View 32 v60,2013-08-10 12:55:00,
2013-08-10 09:00:00,57.0,39.5,30.11,NE,39,0.0,4.0,52,0.00,,,-99.99,Weather View 32 v60,2013-08-10 13:00:00,
2013-08-10 09:05:00,57.4,39.4,30.11,ENE,72,0.0,4.0,51,0.00,,,-99.99,Weather View 32 v60,2013-08-10 13:05:00,
2013-08-10 09:10:00,57.7,38.7,30.11,NE,43,2.0,4.0,49,0.00,,,-99.99,Weather View 32 v60,2013-08-10 13:10:00,
2013-08-10 09:15:00,58.1,38.5,30.11,ESE,113,0.0,4.0,48,0.00,,,-99.99,Weather View 32 v60,2013-08-10 13:15:00,
2013-08-10 09:20:00,58.5,38.3,30.11,East,84,0.0,4.0,47,0.00,,,-99.99,Weather View 32 v60,2013-08-10 13:20:00,
2013-08-10 09:30:00,59.4,36.8,30.11,ESE,111,0.0,4.0,43,0.00,,,-99.99,Weather View 32 v60,2013-08-10 13:30:00,
2013-08-10 09:35:00,59.7,37.1,30.11,NNE,12,0.0,4.0,43,0.00,,,-99.99,Weather View 32 v60,2013-08-10 13:35:00,
2013-08-10 09:40:00,59.9,36.7,30.11,East,91,0.0,4.0,42,0.00,,,-99.99,Weather View 32 v60,2013-08-10 13:40:00,
2013-08-10 09:45:00,60.4,35.3,30.11,East,99,4.0,6.0,39,0.00,,,-99.99,Weather View 32 v60,2013-08-10 13:45:00,
2013-08-10 09:50:00,60.8,35.6,30.11,NE,44,0.0,6.0,39,0.00,,,-99.99,Weather View 32 v60,2013-08-10 13:50:00,
2013-08-10 09:55:00,61.2,35.3,30.11,East,86,0.0,6.0,38,0.00,,,-99.99,Weather View 32 v60,2013-08-10 13:55:00,
2013-08-10 10:00:00,61.5,34.9,30.11,East,79,0.0,6.0,37,0.00,,,-99.99,Weather View 32 v60,2013-08-10 14:00:00,
2013-08-10 10:05:00,61.7,35.1,30.11,NNE,21,0.0,6.0,37,0.00,,,-99.99,Weather View 32 v60,2013-08-10 14:05:00,
2013-08-10 10:10:00,61.9,35.3,30.11,ENE,70,0.0,6.0,37,0.00,,,-99.99,Weather View 32 v60,2013-08-10 14:10:00,
2013-08-10 10:20:00,62.4,35.1,30.14,NE,43,4.0,6.0,36,0.00,,,-99.99,Weather View 32 v60,2013-08-10 14:20:00,
2013-08-10 10:25:00,62.6,34.5,30.14,NE,35,4.0,6.0,35,0.00,,,-99.99,Weather View 32 v60,2013-08-10 14:25:00,
2013-08-10 10:30:00,63.0,33.3,30.14,ENE,63,4.0,7.0,33,0.00,,,-99.99,Weather View 32 v60,2013-08-10 14:30:00,
2013-08-10 10:35:00,63.5,33.8,30.14,ENE,65,4.0,7.0,33,0.00,,,-99.99,Weather View 32 v60,2013-08-10 14:35:00,
2013-08-10 10:40:00,63.9,34.9,30.14,ESE,116,4.0,7.0,34,0.00,,,-99.99,Weather View 32 v60,2013-08-10 14:40:00,
2013-08-10 10:50:00,64.4,33.0,30.14,East,91,5.0,7.0,31,0.00,,,-99.99,Weather View 32 v60,2013-08-10 14:50:00,
2013-08-10 10:55:00,64.8,34.1,30.14,ENE,70,3.0,7.0,32,0.00,,,-99.99,Weather View 32 v60,2013-08-10 14:55:00,
2013-08-10 11:00:00,64.9,33.5,30.14,ESE,112,0.0,7.0,31,0.00,,,-99.99,Weather View 32 v60,2013-08-10 15:00:00,
2013-08-10 11:10:00,65.3,33.8,30.14,ESE,122,4.0,7.0,31,0.00,,,-99.99,Weather View 32 v60,2013-08-10 15:10:00,
2013-08-10 11:15:00,65.5,33.2,30.14,NNE,18,3.0,7.0,30,0.00,,,-99.99,Weather View 32 v60,2013-08-10 15:15:00,
2013-08-10 11:20:00,65.7,34.1,30.14,ESE,105,5.0,7.0,31,0.00,,,-99.99,Weather View 32 v60,2013-08-10 15:20:00,
2013-08-10 11:25:00,65.8,34.3,30.14,ESE,110,4.0,7.0,31,0.00,,,-99.99,Weather View 32 v60,2013-08-10 15:25:00,
2013-08-10 11:30:00,65.8,33.5,30.14,NE,37,0.0,6.0,30,0.00,,,-99.99,Weather View 32 v60,2013-08-10 15:30:00,
2013-08-10 11:35:00,66.0,33.6,30.14,North,0,0.0,6.0,30,0.00,,,-99.99,Weather View 32 v60,2013-08-10 15:35:00,
2013-08-10 11:40:00,66.0,33.6,30.14,NE,49,4.0,6.0,30,0.00,,,-99.99,Weather View 32 v60,2013-08-10 15:40:00,
2013-08-10 11:45:00,66.2,33.8,30.14,ESE,108,3.0,6.0,30,0.00,,,-99.99,Weather View 32 v60,2013-08-10 15:45:00,
2013-08-10 11:55:00,66.2,32.9,30.14,SE,130,4.0,6.0,29,0.00,,,-99.99,Weather View 32 v60,2013-08-10 15:55:00,
2013-08-10 12:00:00,66.4,33.1,30.14,SE,126,0.0,6.0,29,0.00,,,-99.99,Weather View 32 v60,2013-08-10 16:00:00,
2013-08-10 12:05:00,66.6,33.2,30.14,SSE,162,3.0,6.0,29,0.00,,,-99.99,Weather View 32 v60,2013-08-10 16:05:00,
2013-08-10 12:10:00,66.7,34.2,30.14,WNW,289,0.0,6.0,30,0.00,,,-99.99,Weather View 32 v60,2013-08-10 16:10:00,
2013-08-10 12:15:00,66.7,33.4,30.14,SSW,212,0.0,6.0,29,0.00,,,-99.99,Weather View 32 v60,2013-08-10 16:15:00,
2013-08-10 12:20:00,66.9,34.4,30.14,West,273,6.0,8.0,30,0.00,,,-99.99,Weather View 32 v60,2013-08-10 16:20:00,
2013-08-10 12:25:00,67.1,34.6,30.14,West,274,4.0,8.0,30,0.00,,,-99.99,Weather View 32 v60,2013-08-10 16:25:00,
2013-08-10 12:35:00,67.3,34.7,30.14,WNW,293,7.0,8.0,30,0.00,,,-99.99,Weather View 32 v60,2013-08-10 16:35:00,
2013-08-10 12:40:00,67.5,34.0,30.14,SW,216,3.0,8.0,29,0.00,,,-99.99,Weather View 32 v60,2013-08-10 16:40:00,
2013-08-10 12:50:00,67.6,34.2,30.14,SE,136,2.0,8.0,29,0.00,,,-99.99,Weather View 32 v60,2013-08-10 16:50:00,
2013-08-10 12:55:00,67.6,34.2,30.14,NNW,337,4.0,8.0,29,0.00,,,-99.99,Weather View 32 v60,2013-08-10 16:55:00,
2013-08-10 13:00:00,67.8,34.3,30.14,ENE,64,0.0,8.0,29,0.00,,,-99.99,Weather View 32 v60,2013-08-10 17:00:00,
2013-08-10 13:05:00,67.8,34.3,30.14,South,189,3.0,8.0,29,0.00,,,-99.99,Weather View 32 v60,2013-08-10 17:05:00,
2013-08-10 13:10:00,68.0,34.5,30.14,SSW,209,0.0,8.0,29,0.00,,,-99.99,Weather View 32 v60,2013-08-10 17:10:00,
2013-08-10 13:15:00,68.0,34.5,30.14,NW,324,0.0,8.0,29,0.00,,,-99.99,Weather View 32 v60,2013-08-10 17:15:00,
2013-08-10 13:25:00,68.5,34.1,30.14,East,88,2.0,9.0,28,0.00,,,-99.99,Weather View 32 v60,2013-08-10 17:25:00,
2013-08-10 13:30:00,68.5,34.1,30.14,ESE,102,0.0,9.0,28,0.00,,,-99.99,Weather View 32 v60,2013-08-10 17:30:00,
2013-08-10 13:35:00,68.9,34.4,30.11,South,179,0.0,9.0,28,0.00,,,-99.99,Weather View 32 v60,2013-08-10 17:35:00,
2013-08-10 13:40:00,69.1,34.5,30.11,WNW,298,3.0,9.0,28,0.00,,,-99.99,Weather View 32 v60,2013-08-10 17:40:00,
2013-08-10 13:45:00,69.3,34.7,30.11,WNW,297,8.0,9.0,28,0.00,,,-99.99,Weather View 32 v60,2013-08-10 17:45:00,
2013-08-10 13:50:00,69.4,35.7,30.11,WNW,288,4.0,11.0,29,0.00,,,-99.99,Weather View 32 v60,2013-08-10 17:50:00,
2013-08-10 13:55:00,69.6,35.0,30.11,NNW,345,3.0,11.0,28,0.00,,,-99.99,Weather View 32 v60,2013-08-10 17:55:00,
2013-08-10 14:00:00,69.8,33.3,30.11,WNW,294,5.0,11.0,26,0.00,,,-99.99,Weather View 32 v60,2013-08-10 18:00:00,
2013-08-10 14:05:00,70.0,33.4,30.11,WNW,289,2.0,11.0,26,0.00,,,-99.99,Weather View 32 v60,2013-08-10 18:05:00,
2013-08-10 14:15:00,70.2,34.5,30.11,West,280,7.0,11.0,27,0.00,,,-99.99,Weather View 32 v60,2013-08-10 18:15:00,
2013-08-10 14:20:00,70.2,33.6,30.11,NW,313,0.0,11.0,26,0.00,,,-99.99,Weather View 32 v60,2013-08-10 18:20:00,
2013-08-10 14:25:00,70.3,34.7,30.11,South,169,3.0,11.0,27,0.00,,,-99.99,Weather View 32 v60,2013-08-10 18:25:00,
2013-08-10 14:30:00,70.3,33.7,30.11,WNW,292,8.0,11.0,26,0.00,,,-99.99,Weather View 32 v60,2013-08-10 18:30:00,
2013-08-10 14:35:00,70.2,33.6,30.11,WNW,303,3.0,11.0,26,0.00,,,-99.99,Weather View 32 v60,2013-08-10 18:35:00,
2013-08-10 14:40:00,70.2,33.6,30.11,WNW,285,6.0,11.0,26,0.00,,,-99.99,Weather View 32 v60,2013-08-10 18:40:00,
2013-08-10 14:45:00,70.2,33.6,30.11,NW,313,3.0,11.0,26,0.00,,,-99.99,Weather View 32 v60,2013-08-10 18:45:00,
2013-08-10 14:50:00,70.2,33.6,30.11,NW,312,0.0,9.0,26,0.00,,,-99.99,Weather View 32 v60,2013-08-10 18:50:00,
2013-08-10 15:00:00,70.2,34.5,30.11,WNW,291,3.0,9.0,27,0.00,,,-99.99,Weather View 32 v60,2013-08-10 19:00:00,
2013-08-10 15:10:00,70.2,34.5,30.11,WNW,284,0.0,9.0,27,0.00,,,-99.99,Weather View 32 v60,2013-08-10 19:10:00,
2013-08-10 15:15:00,70.2,34.5,30.11,NW,310,0.0,8.0,27,0.00,,,-99.99,Weather View 32 v60,2013-08-10 19:15:00,
2013-08-10 15:20:00,70.2,34.5,30.11,West,273,0.0,8.0,27,0.00,,,-99.99,Weather View 32 v60,2013-08-10 19:20:00,
2013-08-10 15:25:00,70.2,35.5,30.11,West,273,0.0,8.0,28,0.00,,,-99.99,Weather View 32 v60,2013-08-10 19:25:00,
2013-08-10 15:35:00,70.2,36.3,30.11,West,273,0.0,6.0,29,0.00,,,-99.99,Weather View 32 v60,2013-08-10 19:35:00,
2013-08-10 15:40:00,70.2,36.3,30.11,West,273,0.0,6.0,29,0.00,,,-99.99,Weather View 32 v60,2013-08-10 19:40:00,
2013-08-10 15:45:00,70.2,36.3,30.11,West,273,0.0,5.0,29,0.00,,,-99.99,Weather View 32 v60,2013-08-10 19:45:00,
2013-08-10 15:50:00,70.2,37.2,30.11,SE,138,0.0,4.0,30,0.00,,,-99.99,Weather View 32 v60,2013-08-10 19:50:00,
2013-08-10 16:00:00,70.0,38.7,30.11,SE,146,0.0,4.0,32,0.00,,,-99.99,Weather View 32 v60,2013-08-10 20:00:00,
2013-08-10 16:05:00,70.0,38.7,30.11,SE,146,0.0,4.0,32,0.00,,,-99.99,Weather View 32 v60,2013-08-10 20:05:00,
2013-08-10 16:10:00,70.0,38.7,30.11,SE,146,0.0,3.0,32,0.00,,,-99.99,Weather View 32 v60,2013-08-10 20:10:00,
2013-08-10 16:20:00,70.0,38.7,30.11,SE,146,0.0,0.0,32,0.00,,,-99.99,Weather View 32 v60,2013-08-10 20:20:00,
2013-08-10 16:25:00,70.0,38.7,30.11,SE,146,0.0,0.0,32,0.00,,,-99.99,Weather View 32 v60,2013-08-10 20:25:00,
2013-08-10 16:30:00,70.0,37.9,30.11,North,357,0.0,0.0,31,0.00,,,-99.99,Weather View 32 v60,2013-08-10 20:30:00,
2013-08-10 16:35:00,70.0,37.0,30.11,North,357,0.0,0.0,30,0.00,,,-99.99,Weather View 32 v60,2013-08-10 20:35:00,
2013-08-10 16:40:00,70.0,37.0,30.11,NW,306,0.0,0.0,30,0.00,,,-99.99,Weather View 32 v60,2013-08-10 20:40:00,
2013-08-10 16:45:00,70.0,36.2,30.11,WNW,298,3.0,4.0,29,0.00,,,-99.99,Weather View 32 v60,2013-08-10 20:45:00,
2013-08-10 16:50:00,70.2,36.3,30.08,NW,305,0.0,4.0,29,0.00,,,-99.99,Weather View 32 v60,2013-08-10 20:50:00,
2013-08-10 16:55:00,70.2,36.3,30.08,NW,305,0.0,4.0,29,0.00,,,-99.99,Weather View 32 v60,2013-08-10 20:55:00,
2013-08-10 17:00:00,70.3,36.5,30.08,NW,325,2.0,4.0,29,0.00,,,-99.99,Weather View 32 v60,2013-08-10 21:00:00,
2013-08-10 17:10:00,70.3,35.6,30.08,NW,312,3.0,6.0,28,0.00,,,-99.99,Weather View 32 v60,2013-08-10 21:10:00,
2013-08-10 17:15:00,70.5,35.8,30.08,NW,317,2.0,6.0,28,0.00,,,-99.99,Weather View 32 v60,2013-08-10 21:15:00,
2013-08-10 17:20:00,70.5,35.8,30.08,NW,312,4.0,6.0,28,0.00,,,-99.99,Weather View 32 v60,2013-08-10 21:20:00,
2013-08-10 17:25:00,70.5,35.8,30.08,NW,309,4.0,6.0,28,0.00,,,-99.99,Weather View 32 v60,2013-08-10 21:25:00,
2013-08-10 17:30:00,70.5,35.8,30.08,WNW,292,4.0,6.0,28,0.00,,,-99.99,Weather View 32 v60,2013-08-10 21:30:00,
2013-08-10 17:35:00,70.7,35.9,30.08,NW,310,5.0,6.0,28,0.00,,,-99.99,Weather View 32 v60,2013-08-10 21:35:00,
2013-08-10 17:40:00,70.7,35.9,30.08,WNW,297,4.0,6.0,28,0.00,,,-99.99,Weather View 32 v60,2013-08-10 21:40:00,
2013-08-10 17:45:00,70.9,36.1,30.08,WNW,297,5.0,6.0,28,0.00,,,-99.99,Weather View 32 v60,2013-08-10 21:45:00,
2013-08-10 17:50:00,70.9,36.1,30.08,WNW,291,2.0,6.0,28,0.00,,,-99.99,Weather View 32 v60,2013-08-10 21:50:00,
2013-08-10 18:00:00,70.9,35.2,30.08,NW,311,2.0,6.0,27,0.00,,,-99.99,Weather View 32 v60,2013-08-10 22:00:00,
2013-08-10 18:05:00,71.1,35.3,30.08,NW,314,3.0,6.0,27,0.00,,,-99.99,Weather View 32 v60,2013-08-10 22:05:00,
2013-08-10 18:10:00,71.2,35.5,30.08,WNW,290,3.0,6.0,27,0.00,,,-99.99,Weather View 32 v60,2013-08-10 22:10:00,
2013-08-10 18:15:00,71.2,35.5,30.08,NW,310,2.0,6.0,27,0.00,,,-99.99,Weather View 32 v60,2013-08-10 22:15:00,
2013-08-10 18:20:00,71.4,35.6,30.08,NW,307,3.0,6.0,27,0.00,,,-99.99,Weather View 32 v60,2013-08-10 22:20:00,
2013-08-10 18:25:00,71.4,35.6,30.08,WNW,301,0.0,6.0,27,0.00,,,-99.99,Weather View 32 v60,2013-08-10 22:25:00,
2013-08-10 18:35:00,71.4,34.7,30.08,WNW,291,3.0,6.0,26,0.00,,,-99.99,Weather View 32 v60,2013-08-10 22:35:00,
2013-08-10 18:40:00,71.2,35.5,30.08,WNW,299,0.0,6.0,27,0.00,,,-99.99,Weather View 32 v60,2013-08-10 22:40:00,
2013-08-10 18:45:00,71.2,35.5,30.08,NW,315,3.0,6.0,27,0.00,,,-99.99,Weather View 32 v60,2013-08-10 22:45:00,
2013-08-10 18:50:00,71.2,35.5,30.08,WNW,296,4.0,6.0,27,0.00,,,-99.99,Weather View 32 v60,2013-08-10 22:50:00,
2013-08-10 18:55:00,71.2,36.4,30.08,WNW,287,3.0,6.0,28,0.00,,,-99.99,Weather View 32 v60,2013-08-10 22:55:00,
2013-08-10 19:00:00,71.1,36.2,30.08,NW,312,4.0,6.0,28,0.00,,,-99.99,Weather View 32 v60,2013-08-10 23:00:00,
2013-08-10 19:05:00,71.1,36.2,30.08,NW,310,0.0,6.0,28,0.00,,,-99.99,Weather View 32 v60,2013-08-10 23:05:00,
2013-08-10 19:10:00,71.1,37.1,30.08,NW,310,0.0,6.0,29,0.00,,,-99.99,Weather View 32 v60,2013-08-10 23:10:00,
2013-08-10 19:15:00,70.9,37.0,30.08,WNW,290,3.0,6.0,29,0.00,,,-99.99,Weather View 32 v60,2013-08-10 23:15:00,
2013-08-10 19:20:00,70.9,37.8,30.08,WNW,302,2.0,6.0,30,0.00,,,-99.99,Weather View 32 v60,2013-08-10 23:20:00,
2013-08-10 19:25:00,70.9,37.8,30.08,WNW,302,4.0,6.0,30,0.00,,,-99.99,Weather View 32 v60,2013-08-10 23:25:00,
2013-08-10 19:30:00,70.9,37.8,30.08,WNW,296,2.0,6.0,30,0.00,,,-99.99,Weather View 32 v60,2013-08-10 23:30:00,
2013-08-10 19:35:00,70.9,37.8,30.08,WNW,298,3.0,6.0,30,0.00,,,-99.99,Weather View 32 v60,2013-08-10 23:35:00,
2013-08-10 19:40:00,71.1,38.0,30.08,WNW,292,3.0,6.0,30,0.00,,,-99.99,Weather View 32 v60,2013-08-10 23:40:00,
2013-08-10 19:45:00,71.2,37.3,30.08,NW,317,3.0,6.0,29,0.00,,,-99.99,Weather View 32 v60,2013-08-10 23:45:00,
2013-08-10 19:55:00,71.2,37.3,30.08,NW,310,3.0,6.0,29,0.00,,,-99.99,Weather View 32 v60,2013-08-10 23:55:00,
2013-08-10 20:00:00,71.1,37.1,30.08,NW,310,0.0,6.0,29,0.00,,,-99.99,Weather View 32 v60,2013-08-11 00:00:00,
2013-08-10 20:05:00,70.7,36.8,30.08,NW,308,2.0,6.0,29,0.00,,,-99.99,Weather View 32 v60,2013-08-11 00:05:00,
2013-08-10 20:10:00,70.7,36.8,30.08,NW,319,0.0,6.0,29,0.00,,,-99.99,Weather View 32 v60,2013-08-11 00:10:00,
2013-08-10 20:15:00,70.5,36.6,30.08,NW,319,0.0,6.0,29,0.00,,,-99.99,Weather View 32 v60,2013-08-11 00:15:00,
2013-08-10 20:20:00,70.3,37.4,30.08,NW,319,0.0,6.0,30,0.00,,,-99.99,Weather View 32 v60,2013-08-11 00:20:00,
2013-08-10 20:25:00,70.2,38.0,30.08,NW,319,0.0,6.0,31,0.00,,,-99.99,Weather View 32 v60,2013-08-11 00:25:00,
2013-08-10 20:30:00,70.0,38.7,30.08,NW,319,0.0,6.0,32,0.00,,,-99.99,Weather View 32 v60,2013-08-11 00:30:00,
2013-08-10 20:40:00,69.6,39.2,30.08,NW,319,0.0,6.0,33,0.00,,,-99.99,Weather View 32 v60,2013-08-11 00:40:00,
2013-08-10 20:45:00,69.3,38.9,30.08,NW,319,0.0,6.0,33,0.00,,,-99.99,Weather View 32 v60,2013-08-11 00:45:00,
2013-08-10 20:50:00,69.1,38.7,30.08,NW,319,0.0,6.0,33,0.00,,,-99.99,Weather View 32 v60,2013-08-11 00:50:00,
2013-08-10 20:55:00,68.7,38.4,30.08,NW,319,0.0,6.0,33,0.00,,,-99.99,Weather View 32 v60,2013-08-11 00:55:00,
2013-08-10 21:00:00,68.4,38.1,30.08,NW,319,0.0,4.0,33,0.00,,,-99.99,Weather View 32 v60,2013-08-11 01:00:00,
2013-08-10 21:05:00,68.0,38.5,30.08,NW,319,0.0,3.0,34,0.00,,,-99.99,Weather View 32 v60,2013-08-11 01:05:00,
2013-08-10 21:10:00,67.5,38.0,30.08,NW,319,0.0,0.0,34,0.00,,,-99.99,Weather View 32 v60,2013-08-11 01:10:00,
2013-08-10 21:15:00,67.1,38.5,30.08,NW,319,0.0,0.0,35,0.00,,,-99.99,Weather View 32 v60,2013-08-11 01:15:00,
2013-08-10 21:20:00,66.6,38.0,30.08,NW,319,0.0,0.0,35,0.00,,,-99.99,Weather View 32 v60,2013-08-11 01:20:00,
2013-08-10 21:25:00,66.2,37.7,30.08,NW,319,0.0,0.0,35,0.00,,,-99.99,Weather View 32 v60,2013-08-11 01:25:00,
2013-08-10 21:30:00,65.8,38.1,30.08,NW,319,0.0,0.0,36,0.00,,,-99.99,Weather View 32 v60,2013-08-11 01:30:00,
2013-08-10 21:35:00,65.5,37.8,30.08,NW,319,0.0,0.0,36,0.00,,,-99.99,Weather View 32 v60,2013-08-11 01:35:00,
2013-08-10 21:45:00,64.9,37.3,30.08,NW,319,0.0,0.0,36,0.00,,,-99.99,Weather View 32 v60,2013-08-11 01:45:00,
2013-08-10 21:50:00,64.6,37.0,30.08,NW,319,0.0,0.0,36,0.00,,,-99.99,Weather View 32 v60,2013-08-11 01:50:00,
2013-08-10 21:55:00,64.2,37.3,30.08,NW,319,0.0,0.0,37,0.00,,,-99.99,Weather View 32 v60,2013-08-11 01:55:00,
2013-08-10 22:00:00,63.9,37.0,30.08,NW,319,0.0,0.0,37,0.00,,,-99.99,Weather View 32 v60,2013-08-11 02:00:00,
2013-08-10 22:05:00,63.5,36.7,30.08,NW,319,0.0,0.0,37,0.00,,,-99.99,Weather View 32 v60,2013-08-11 02:05:00,
2013-08-10 22:10:00,63.3,37.2,30.08,NW,319,0.0,0.0,38,0.00,,,-99.99,Weather View 32 v60,2013-08-11 02:10:00,
2013-08-10 22:15:00,63.0,36.9,30.08,NW,319,0.0,0.0,38,0.00,,,-99.99,Weather View 32 v60,2013-08-11 02:15:00,
2013-08-10 22:20:00,62.8,36.7,30.08,NW,319,0.0,0.0,38,0.00,,,-99.99,Weather View 32 v60,2013-08-11 02:20:00,
2013-08-10 22:25:00,62.4,36.4,30.08,NW,319,0.0,0.0,38,0.00,,,-99.99,Weather View 32 v60,2013-08-11 02:25:00,
2013-08-10 22:30:00,62.2,36.9,30.08,NW,319,0.0,0.0,39,0.00,,,-99.99,Weather View 32 v60,2013-08-11 02:30:00,
2013-08-10 22:35:00,61.9,36.6,30.08,NW,319,0.0,0.0,39,0.00,,,-99.99,Weather View 32 v60,2013-08-11 02:35:00,
2013-08-10 22:40:00,61.7,36.4,30.08,NW,319,0.0,0.0,39,0.00,,,-99.99,Weather View 32 v60,2013-08-11 02:40:00,
2013-08-10 22:45:00,61.3,36.1,30.08,NW,319,0.0,0.0,39,0.00,,,-99.99,Weather View 32 v60,2013-08-11 02:45:00,
2013-08-10 22:55:00,61.0,35.8,30.08,NW,319,0.0,0.0,39,0.00,,,-99.99,Weather View 32 v60,2013-08-11 02:55:00,
2013-08-10 23:00:00,60.6,36.1,30.08,NW,319,0.0,0.0,40,0.00,,,-99.99,Weather View 32 v60,2013-08-11 03:00:00,
2013-08-10 23:05:00,60.4,35.9,30.08,NW,319,0.0,0.0,40,0.00,,,-99.99,Weather View 32 v60,2013-08-11 03:05:00,
2013-08-10 23:10:00,60.3,35.8,30.08,NW,319,0.0,0.0,40,0.00,,,-99.99,Weather View 32 v60,2013-08-11 03:10:00,
2013-08-10 23:20:00,59.9,36.1,30.08,NW,319,0.0,0.0,41,0.00,,,-99.99,Weather View 32 v60,2013-08-11 03:20:00,
2013-08-10 23:25:00,59.7,35.9,30.08,NW,319,0.0,0.0,41,0.00,,,-99.99,Weather View 32 v60,2013-08-11 03:25:00,
2013-08-10 23:30:00,59.4,35.6,30.08,NW,319,0.0,0.0,41,0.00,,,-99.99,Weather View 32 v60,2013-08-11 03:30:00,
2013-08-10 23:35:00,59.2,35.4,30.08,NW,319,0.0,0.0,41,0.00,,,-99.99,Weather View 32 v60,2013-08-11 03:35:00,
2013-08-10 23:40:00,59.2,35.4,30.08,NW,319,0.0,0.0,41,0.00,,,-99.99,Weather View 32 v60,2013-08-11 03:40:00,
2013-08-10 23:50:00,58.8,35.7,30.08,NW,319,0.0,0.0,42,0.00,,,-99.99,Weather View 32 v60,2013-08-11 03:50:00,
2013-08-10 23:55:00,58.6,35.6,30.08,NW,319,0.0,0.0,42,0.00,,,-99.99,Weather View 32 v60,2013-08-11 03:55:00,